�N����,����,�~����,�C��,���x,�C��,����,���ϕ���,�ő�u�ԕ���,�ő厞����,���˗�,�I�_���x,�n�����x,�ő啗���N��,DTYPE
"22/06/07","00:10",0.0,17.5,96.6,991.5,285.6,1.2,3.7,327.0,0.00,17.0,18.8,"00:08:08",1
"22/06/07","00:20",0.0,17.5,96.5,991.5,281.5,1.3,2.7,244.5,0.00,17.0,19.0,"00:19:12",1
"22/06/07","00:30",0.0,17.4,96.3,991.5,283.4,1.5,3.5,249.6,0.00,16.8,19.0,"00:20:48",1
"22/06/07","00:40",0.0,17.5,96.1,991.8,300.9,1.6,3.3,257.0,0.00,16.9,19.1,"00:39:52",1
"22/06/07","00:50",0.0,17.4,95.8,991.8,299.5,2.0,3.2,324.3,0.00,16.8,19.0,"00:46:40",1
"22/06/07","01:00",0.0,17.5,95.5,991.8,297.6,1.7,3.7,313.5,0.00,16.8,19.0,"00:50:16",1
"22/06/07","01:10",0.0,17.5,95.3,992.0,313.3,1.5,3.2,342.2,0.00,16.8,18.9,"01:02:00",1
"22/06/07","01:20",0.0,17.4,95.1,992.0,327.5,2.2,3.5,334.6,0.00,16.6,19.0,"01:12:24",1
"22/06/07","01:30",0.0,17.4,94.6,992.5,294.5,2.1,4.9,246.4,0.00,16.6,18.9,"01:21:12",1
"22/06/07","01:40",0.0,17.5,94.2,992.2,283.4,1.6,3.2,257.3,0.00,16.6,18.9,"01:31:52",1
"22/06/07","01:50",0.0,17.5,93.6,992.7,303.8,1.8,3.6,287.8,0.00,16.5,19.0,"01:48:16",1
"22/06/07","02:00",0.0,17.5,92.8,992.7,290.2,2.0,4.3,325.3,0.00,16.4,19.1,"01:57:36",1
"22/06/07","02:10",0.0,17.6,92.0,993.0,304.6,2.5,5.7,331.0,0.00,16.3,18.7,"02:03:12",1
"22/06/07","02:20",0.0,17.6,91.2,993.0,304.4,2.1,3.5,340.4,0.00,16.2,18.7,"02:13:12",1
"22/06/07","02:30",0.0,17.6,90.4,993.0,289.9,1.6,3.3,321.6,0.00,16.1,19.1,"02:28:16",1
"22/06/07","02:40",0.0,17.6,89.7,992.7,292.0,1.5,3.1,325.5,0.00,15.9,18.9,"02:36:32",1
"22/06/07","02:50",0.0,17.5,89.3,993.2,288.0,1.6,3.2,325.9,0.00,15.8,18.7,"02:44:40",1
"22/06/07","03:00",0.0,17.6,88.9,993.2,289.8,1.8,4.5,313.3,0.00,15.8,18.9,"02:55:20",1
"22/06/07","03:10",0.0,17.6,88.5,993.7,306.1,2.1,4.7,300.1,0.00,15.7,18.8,"03:05:20",1
"22/06/07","03:20",0.0,17.5,88.3,993.7,284.0,1.7,3.4,298.2,0.00,15.6,18.7,"03:12:40",1
"22/06/07","03:30",0.0,17.5,88.3,993.9,281.1,1.8,4.0,251.5,0.00,15.6,19.0,"03:27:04",1
"22/06/07","03:40",0.0,17.4,88.3,993.9,290.4,1.8,3.2,286.4,0.00,15.5,18.8,"03:33:36",1
"22/06/07","03:50",0.0,17.4,88.1,994.1,308.6,2.1,4.7,276.1,0.00,15.5,18.8,"03:42:48",1
"22/06/07","04:00",0.0,17.3,87.8,993.9,288.0,1.7,4.5,334.2,0.00,15.3,18.8,"03:58:40",1
"22/06/07","04:10",0.0,17.3,87.7,994.1,291.5,2.0,4.3,330.7,0.00,15.3,18.7,"04:04:56",1
"22/06/07","04:20",0.0,17.2,87.6,994.6,280.2,1.8,5.4,228.6,0.00,15.2,18.8,"04:19:28",1
"22/06/07","04:30",0.0,17.3,87.3,994.4,279.7,1.7,3.7,258.3,0.00,15.2,19.0,"04:20:02",1
"22/06/07","04:40",0.0,17.2,87.1,994.8,277.8,1.7,4.0,234.7,0.00,15.1,18.7,"04:34:56",1
"22/06/07","04:50",0.0,17.2,87.2,995.1,284.7,1.6,4.3,329.7,0.00,15.1,18.9,"04:45:44",1
"22/06/07","05:00",0.0,17.2,87.5,995.1,283.8,1.8,5.2,343.2,0.00,15.1,18.7,"04:50:24",1
"22/06/07","05:10",0.0,17.0,88.0,995.3,289.7,1.7,3.2,331.0,0.00,15.0,18.7,"05:08:40",1
"22/06/07","05:20",0.0,16.9,88.5,995.3,284.9,1.1,1.9,269.4,0.00,15.0,18.8,"05:14:40",1
"22/06/07","05:30",0.0,16.9,89.0,995.8,286.4,1.5,3.5,337.4,0.00,15.1,18.6,"05:26:00",1
"22/06/07","05:40",0.0,16.9,89.3,995.6,290.0,1.5,2.4,340.1,0.00,15.2,18.7,"05:36:24",1
"22/06/07","05:50",0.0,16.9,89.5,995.8,291.5,1.3,2.8,337.4,0.00,15.2,18.7,"05:41:12",1
"22/06/07","06:00",0.0,16.9,89.7,996.0,281.9,1.6,3.9,243.3,0.01,15.2,18.5,"05:57:12",1
"22/06/07","06:10",0.0,17.1,89.5,996.3,304.3,1.8,3.1,305.0,0.02,15.4,18.6,"06:03:52",1
"22/06/07","06:20",0.0,17.2,89.0,996.3,300.1,2.0,3.7,312.8,0.02,15.4,18.6,"06:18:48",1
"22/06/07","06:30",0.0,17.4,88.4,996.3,312.9,2.3,4.5,308.1,0.03,15.5,18.7,"06:23:12",1
"22/06/07","06:40",0.0,17.6,88.1,996.0,318.9,2.2,4.1,332.6,0.05,15.6,18.7,"06:36:00",1
"22/06/07","06:50",0.0,18.1,87.3,996.0,318.9,1.7,3.1,322.0,0.07,16.0,18.7,"06:47:52",1
"22/06/07","07:00",0.0,18.3,86.1,996.0,295.8,1.5,3.9,248.7,0.07,16.0,18.7,"06:55:28",1
"22/06/07","07:10",0.0,19.6,85.1,996.7,333.6,1.0,2.5,335.0,0.14,17.1,18.8,"07:02:40",1
"22/06/07","07:20",0.0,19.8,81.4,996.5,300.8,1.3,3.4,313.8,0.18,16.6,18.8,"07:17:12",1
"22/06/07","07:30",0.0,19.9,79.1,997.0,291.6,2.1,4.4,326.3,0.20,16.2,18.7,"07:24:00",1
"22/06/07","07:40",0.0,19.4,78.9,996.7,302.8,2.5,5.4,338.6,0.18,15.7,18.5,"07:31:04",1
"22/06/07","07:50",0.0,19.7,78.7,997.0,298.7,2.2,4.1,317.0,0.23,15.9,18.7,"07:42:40",1
"22/06/07","08:00",0.0,19.8,78.5,997.0,310.3,2.2,5.8,312.0,0.20,16.0,18.8,"07:52:56",1
"22/06/07","08:10",0.0,19.2,78.3,996.7,303.0,2.5,5.6,317.0,0.12,15.4,18.6,"08:04:32",1
"22/06/07","08:20",0.0,19.5,78.7,996.7,312.5,2.6,4.1,342.9,0.21,15.7,18.6,"08:18:16",1
"22/06/07","08:30",0.0,19.4,78.9,996.5,305.6,2.5,4.9,335.4,0.16,15.7,18.5,"08:24:24",1
"22/06/07","08:40",0.0,19.8,78.4,996.7,303.7,2.1,4.2,322.1,0.17,16.0,18.5,"08:32:32",1
"22/06/07","08:50",0.0,20.0,77.7,996.7,288.6,2.0,3.5,3.3,0.21,16.0,18.6,"08:49:20",1
"22/06/07","09:00",0.0,20.2,76.8,996.7,281.1,2.2,4.0,240.8,0.23,16.0,18.7,"08:54:08",1
"22/06/07","09:10",0.0,19.8,76.9,997.0,301.0,2.1,4.7,334.0,0.12,15.7,18.7,"09:03:28",1
"22/06/07","09:20",0.0,19.3,78.9,997.2,287.3,2.1,6.5,343.3,0.10,15.6,18.8,"09:19:12",1
"22/06/07","09:30",0.0,19.4,80.9,997.2,299.7,2.2,3.4,273.0,0.20,16.1,18.8,"09:24:56",1
"22/06/07","09:40",0.0,19.7,80.8,997.4,312.9,2.7,6.2,338.4,0.35,16.4,18.7,"09:30:32",1
"22/06/07","09:50",0.0,20.3,79.6,997.2,294.1,2.3,3.9,329.1,0.49,16.7,18.8,"09:40:32",1
"22/06/07","10:00",0.0,20.7,77.7,997.2,300.2,2.8,5.7,352.1,0.51,16.7,18.7,"09:57:36",1
"22/06/07","10:10",0.0,20.8,75.6,997.2,310.8,3.2,7.0,314.9,0.50,16.4,18.8,"10:08:08",1
"22/06/07","10:20",0.0,21.0,74.0,997.0,296.7,2.8,6.2,340.4,0.45,16.2,18.7,"10:15:52",1
"22/06/07","10:30",0.0,20.9,74.0,997.2,298.3,2.6,4.9,312.1,0.43,16.1,18.7,"10:29:44",1
"22/06/07","10:40",0.0,20.7,75.9,997.2,309.4,3.0,6.3,330.2,0.51,16.3,18.8,"10:39:12",1
"22/06/07","10:50",0.0,20.5,77.3,997.4,310.7,2.8,4.9,245.5,0.38,16.4,18.9,"10:43:36",1
"22/06/07","11:00",0.0,21.5,75.6,997.7,331.7,3.1,6.2,355.7,0.57,17.1,18.9,"10:56:08",1
"22/06/07","11:10",0.0,21.9,70.5,997.2,324.4,3.2,5.8,346.2,0.62,16.3,19.0,"11:04:56",1
"22/06/07","11:20",0.0,21.7,70.1,997.9,317.4,2.8,6.2,242.7,0.34,16.1,19.0,"11:19:52",1
"22/06/07","11:30",0.0,20.9,73.0,997.9,312.9,2.3,4.2,279.0,0.20,15.9,19.2,"11:20:32",1
"22/06/07","11:40",0.0,20.9,74.7,997.9,6.3,2.6,6.2,342.3,0.38,16.3,18.8,"11:37:44",1
"22/06/07","11:50",0.0,21.4,73.0,997.7,0.5,2.6,4.9,354.7,0.38,16.4,19.0,"11:44:40",1
"22/06/07","12:00",0.0,21.1,72.1,998.2,8.0,2.8,6.2,29.9,0.25,15.9,19.2,"11:56:24",1
"22/06/07","12:10",0.0,19.8,77.2,998.4,348.4,3.0,5.1,350.7,0.10,15.7,19.2,"12:02:08",1
"22/06/07","12:20",0.6,19.7,81.6,998.2,327.6,2.1,4.5,350.0,0.31,16.5,19.2,"12:10:08",1
"22/06/07","12:30",0.0,20.1,82.9,997.9,338.2,2.1,4.1,336.1,0.35,17.1,19.2,"12:22:16",1
"22/06/07","12:40",0.0,21.0,82.5,998.2,346.4,3.0,5.8,350.4,0.46,17.9,19.3,"12:30:56",1
"22/06/07","12:50",0.0,21.3,79.5,998.2,342.9,3.2,5.5,350.1,0.61,17.7,19.4,"12:41:20",1
"22/06/07","13:00",0.0,21.2,75.5,998.2,324.5,4.0,8.3,346.0,0.51,16.7,19.4,"12:56:24",1
"22/06/07","13:10",0.0,21.5,72.8,998.2,343.0,4.9,8.8,332.9,0.60,16.5,19.3,"13:02:00",1
"22/06/07","13:20",0.0,22.1,70.1,998.2,332.7,4.1,8.0,334.4,0.63,16.4,19.4,"13:10:08",1
"22/06/07","13:30",0.0,22.2,67.9,998.2,326.5,4.6,10.1,340.5,0.60,16.0,19.3,"13:24:08",1
"22/06/07","13:40",0.0,22.0,67.7,998.2,345.3,3.7,7.4,342.4,0.43,15.8,19.5,"13:32:24",1
"22/06/07","13:50",0.0,21.1,69.8,997.9,354.8,2.7,6.0,351.7,0.11,15.4,19.6,"13:41:36",1
"22/06/07","14:00",0.0,21.2,69.6,998.4,327.5,4.0,7.8,335.4,0.31,15.5,19.3,"13:58:56",1
"22/06/07","14:10",0.0,21.2,69.9,998.4,341.1,3.6,5.8,323.7,0.13,15.5,19.4,"14:02:24",1
"22/06/07","14:20",0.0,20.1,73.8,998.4,352.8,3.6,8.3,345.0,0.15,15.3,19.6,"14:15:12",1
"22/06/07","14:30",0.0,20.1,77.7,998.4,344.8,3.0,6.6,343.5,0.33,16.1,19.5,"14:29:28",1
"22/06/07","14:40",0.0,20.8,74.8,998.4,335.0,3.1,5.4,347.9,0.43,16.2,19.6,"14:35:52",1
"22/06/07","14:50",0.0,21.0,70.8,998.4,332.0,4.4,6.5,330.4,0.37,15.5,19.6,"14:45:36",1
"22/06/07","15:00",0.0,20.8,70.1,998.6,330.2,3.6,6.2,350.0,0.15,15.2,19.6,"14:52:00",1
"22/06/07","15:10",0.0,20.5,70.8,998.9,345.8,3.0,5.5,345.7,0.14,15.1,19.5,"15:09:40",1
"22/06/07","15:20",0.0,20.6,70.6,999.3,337.9,2.7,5.8,344.0,0.15,15.1,19.8,"15:10:08",1
"22/06/07","15:30",0.0,21.0,70.7,999.1,334.1,2.3,4.0,335.5,0.18,15.5,19.7,"15:28:56",1
"22/06/07","15:40",0.0,21.1,71.5,999.1,331.6,2.2,3.6,342.2,0.19,15.8,19.7,"15:30:32",1
"22/06/07","15:50",0.0,20.9,72.0,999.6,333.5,2.3,5.1,349.2,0.18,15.7,19.7,"15:44:32",1
"22/06/07","16:00",0.0,21.1,70.7,999.3,335.1,2.1,3.9,350.5,0.19,15.6,19.6,"15:55:28",1
"22/06/07","16:10",0.0,19.9,73.5,999.3,344.7,2.6,5.8,349.1,0.06,15.1,19.8,"16:05:44",1
"22/06/07","16:20",0.2,19.3,77.4,999.8,343.5,2.7,4.7,353.0,0.10,15.3,19.8,"16:13:28",1
"22/06/07","16:30",0.0,18.9,77.9,999.8,322.5,3.1,5.1,340.8,0.11,15.0,19.8,"16:27:20",1
"22/06/07","16:40",0.0,19.1,77.7,1000.3,331.0,3.5,5.5,345.1,0.06,15.2,19.7,"16:35:28",1
"22/06/07","16:50",0.0,19.3,79.0,1000.0,304.5,1.6,2.9,280.8,0.11,15.6,19.8,"16:41:20",1
"22/06/07","17:00",0.0,19.5,79.5,1000.5,327.5,2.0,2.8,335.2,0.09,15.9,19.7,"16:51:44",1
"22/06/07","17:10",0.0,19.3,78.6,1000.8,324.9,2.5,5.1,356.6,0.09,15.5,19.7,"17:01:20",1
"22/06/07","17:20",0.0,19.2,78.0,1000.8,320.0,2.5,3.6,337.9,0.08,15.3,19.7,"17:12:32",1
"22/06/07","17:30",0.0,19.1,78.1,1000.8,328.4,2.6,4.2,338.7,0.07,15.2,19.8,"17:20:08",1
"22/06/07","17:40",0.0,19.2,78.4,1000.8,327.3,2.2,3.6,336.9,0.06,15.4,19.7,"17:31:44",1
"22/06/07","17:50",0.0,19.0,78.5,1001.2,344.8,2.3,5.1,340.8,0.06,15.2,19.8,"17:42:40",1
"22/06/07","18:00",0.0,18.9,78.5,1001.2,334.3,1.8,3.4,343.2,0.06,15.1,19.7,"17:50:40",1
"22/06/07","18:10",0.0,18.8,78.4,1001.7,333.1,1.6,3.5,330.1,0.05,15.0,19.9,"18:04:16",1
"22/06/07","18:20",0.0,19.0,78.0,1001.5,349.8,1.0,2.5,344.7,0.05,15.1,19.7,"18:15:52",1
"22/06/07","18:30",0.0,18.8,77.5,1001.7,344.5,0.7,1.7,347.2,0.02,14.8,19.6,"18:24:16",1
"22/06/07","18:40",0.0,18.5,75.7,1002.2,332.6,1.6,4.4,328.5,0.02,14.2,19.7,"18:36:40",1
"22/06/07","18:50",0.0,18.3,75.8,1001.9,0.4,2.1,4.3,351.1,0.02,14.0,19.7,"18:45:52",1
"22/06/07","19:00",0.0,18.0,76.6,1002.4,353.8,2.0,4.2,328.7,0.02,13.9,19.9,"18:55:04",1
"22/06/07","19:10",0.0,17.9,76.5,1002.2,2.6,1.3,2.9,340.5,0.01,13.8,19.6,"19:08:48",1
"22/06/07","19:20",0.0,17.7,76.2,1002.2,353.7,2.1,4.9,341.9,0.00,13.5,19.8,"19:19:20",1
"22/06/07","19:30",0.0,17.6,76.4,1002.4,348.1,2.5,4.2,3.2,0.00,13.4,19.6,"19:26:48",1
"22/06/07","19:40",0.0,17.4,76.8,1002.2,349.0,2.6,4.7,346.9,0.00,13.3,19.8,"19:32:08",1
"22/06/07","19:50",0.0,17.1,77.7,1002.2,334.4,2.6,4.4,28.0,0.00,13.2,19.6,"19:41:12",1
"22/06/07","20:00",0.0,16.6,79.2,1002.4,329.6,3.2,5.0,339.8,0.00,13.0,19.6,"19:51:52",1
"22/06/07","20:10",0.0,16.5,79.5,1002.4,328.3,3.6,5.6,333.6,0.00,13.0,19.7,"20:07:44",1
"22/06/07","20:20",0.0,16.6,78.5,1002.4,331.3,4.2,6.2,335.4,0.00,12.9,19.4,"20:14:56",1
"22/06/07","20:30",0.0,16.9,76.4,1002.2,333.4,5.1,7.5,341.7,0.00,12.8,19.5,"20:28:56",1
"22/06/07","20:40",0.0,16.9,75.7,1002.4,335.9,4.1,7.8,332.5,0.00,12.6,19.5,"20:30:08",1
"22/06/07","20:50",0.0,16.8,76.0,1002.6,336.3,3.1,5.4,340.3,0.00,12.6,19.7,"20:45:36",1
"22/06/07","21:00",0.0,16.6,77.2,1002.9,338.5,3.2,6.7,341.6,0.00,12.6,19.4,"20:58:48",1
"22/06/07","21:10",0.0,16.4,78.3,1002.9,341.6,3.4,6.2,326.0,0.00,12.7,19.6,"21:06:08",1
"22/06/07","21:20",0.0,16.4,78.7,1002.9,340.8,3.1,5.5,336.3,0.00,12.7,19.4,"21:13:20",1
"22/06/07","21:30",0.0,16.2,78.9,1003.1,311.9,2.0,4.5,347.2,0.00,12.6,19.3,"21:21:12",1
"22/06/07","21:40",0.0,15.9,79.2,1003.1,309.9,1.3,2.6,342.8,0.00,12.3,19.4,"21:30:56",1
"22/06/07","21:50",0.0,15.8,79.9,1003.4,325.5,2.2,4.1,325.7,0.00,12.4,19.5,"21:46:56",1
"22/06/07","22:00",0.0,15.7,80.5,1003.6,325.4,2.3,3.6,324.6,0.00,12.4,19.2,"21:59:12",1
"22/06/07","22:10",0.0,15.7,80.9,1003.8,326.8,1.2,2.0,313.4,0.00,12.5,19.3,"22:02:56",1
"22/06/07","22:20",0.0,15.4,81.4,1003.8,275.8,0.8,2.0,319.4,0.00,12.3,19.3,"22:11:20",1
"22/06/07","22:30",0.0,15.1,82.3,1003.6,293.2,1.1,1.9,336.7,0.00,12.1,19.0,"22:27:28",1
"22/06/07","22:40",0.0,15.1,83.1,1003.6,309.2,1.7,3.2,324.6,0.00,12.3,19.2,"22:33:04",1
"22/06/07","22:50",0.0,15.2,83.6,1003.6,299.1,2.0,3.4,311.9,0.00,12.5,19.2,"22:44:08",1
"22/06/07","23:00",0.0,14.8,84.1,1004.1,286.1,1.2,1.6,326.6,0.00,12.2,19.1,"22:50:40",1
"22/06/07","23:10",0.0,14.4,84.6,1003.8,311.2,1.3,2.0,317.5,0.00,11.9,19.2,"23:03:14",1
"22/06/07","23:20",0.0,14.0,85.4,1004.1,282.3,1.0,1.8,267.5,0.00,11.6,19.2,"23:10:56",1
"22/06/07","23:30",0.0,13.7,86.1,1003.6,300.5,0.8,1.6,324.5,0.00,11.5,19.0,"23:27:44",1
"22/06/07","23:40",0.0,14.0,86.9,1003.8,325.1,1.6,2.1,342.3,0.00,11.9,18.9,"23:37:34",1
"22/06/07","23:50",0.0,14.1,87.5,1004.3,328.8,1.5,2.0,335.6,0.00,12.1,19.0,"23:42:28",1
"22/06/07","24:00",0.0,13.7,87.8,1004.1,292.8,1.0,1.4,326.8,0.00,11.8,19.1,"23:50:40",1
